This demonstration page uses our WeatherBlox Daily Observations layout. Learn more.

Left ArrowRight Arrow

Hourly Observations for October 25, 2018

Temp ( °F °C ) Dew Point ( °F °C ) Humidity (%) Winds ( mph kmh ) Pressure ( in mb ) Visibility ( mi km ) Precip ( " mm )
12:53 am 00:53 Cloudy with Light Rain 47 8.3 45 7.2 93 93 SSW 3 6 30.10 1019 5 8 0.07 1.78
1:11 am 01:11 Cloudy with Light Rain 46 8 45 7 93 93 S 3 6 30.12 1020 5 8 0.00 0.00
1:30 am 01:30 Cloudy with Light Rain 46 8 46 8 100 100 SSE 3 6 30.12 1020 4 6 0.00 0.00
1:53 am 01:53 Cloudy with Light Rain 47 8.3 46 7.8 97 97 S 3 6 30.08 1019 6 10 0.05 1.27
2:13 am 02:13 Cloudy with Light Rain 46 7.8 45 7.2 96 96 S 5 7 30.12 1020 5 8 0.01 0.25
2:40 am 02:40 Cloudy with Light Rain 46 8 46 8 100 100 S 6 9 30.09 1019 7 11 0.00 0.00
2:49 am 02:49 Cloudy with Light Rain 46 8 45 7 93 93 SW 7 11 30.09 1019 6 10 0.02 0.51
2:53 am 02:53 Cloudy with Light Rain 47 8.3 45 7.2 93 93 SSW 6 9 30.06 1018 6 10 0.02 0.51
3:13 am 03:13 Cloudy with Light Rain 46 7.8 45 7.2 96 96 SSW 6 9 30.09 1019 5 8 0.01 0.25
3:53 am 03:53 Cloudy with Light Rain 46 7.8 46 7.8 100 100 S 5 7 30.05 1018 7 11 0.04 1.02
4:02 am 04:02 Cloudy with Light Rain 46 8 46 8 100 100 S 6 9 30.06 1018 8 13 0.00 0.00
4:49 am 04:49 Cloudy 46 8 45 7 93 93 S 5 7 30.06 1018 8 13 0.00 0.03
4:53 am 04:53 Cloudy 46 7.8 45 7.2 96 96 S 5 7 30.03 1017 8 13 0.00 0.03
5:15 am 05:15 Cloudy 46 7.8 45 7.2 96 96 S 5 7 30.06 1018 9 14 0.00 0.00
5:53 am 05:53 Cloudy with Mist and Fog 46 7.8 45 7.2 96 96 Calm 30.03 1017 4 6 0.00 0.00
6:51 am 06:51 Cloudy with Light Rain 46 8 45 7 93 93 S 3 6 30.06 1018 4 6 0.02 0.51
6:53 am 06:53 Cloudy with Light Rain 46 7.8 45 7.2 96 96 S 3 6 30.02 1017 4 6 0.03 0.76
7:42 am 07:42 Cloudy with Light Rain 46 8 45 7 93 93 S 6 9 30.03 1017 3 5 0.00 0.00
7:53 am 07:53 Cloudy with Light Rain 46 7.8 45 7.2 96 96 S 3 6 30.02 1017 4 6 0.03 0.76
8:12 am 08:12 Cloudy with Light Rain 46 8 45 7 93 93 S 3 6 30.03 1017 5 8 0.00 0.00
8:34 am 08:34 Cloudy with Light Rain 46 7.8 45 7.2 96 96 SE 3 6 30.03 1017 3 5 0.02 0.51
8:53 am 08:53 Cloudy with Light Rain 46 7.8 45 7.2 96 96 SE 5 7 30.02 1017 3 5 0.03 0.76
9:18 am 09:18 Cloudy with Light Rain 46 7.8 45 7.2 96 96 SSE 5 7 30.06 1018 5 8 0.01 0.25
9:53 am 09:53 Cloudy with Light Rain 47 8.3 46 7.8 97 97 S 6 9 30.03 1017 6 10 0.02 0.51
10:00 am 10:00 Cloudy with Light Rain 47 8.3 46 7.8 97 97 S 6 9 30.06 1018 5 8 0.01 0.25
10:26 am 10:26 Cloudy with Light Rain 47 8.3 46 7.8 97 97 S 6 9 30.03 1017 8 13 0.02 0.51
10:53 am 10:53 Cloudy 47 8.3 46 7.8 97 97 S 6 9 30.02 1017 10 16 0.02 0.51
11:02 am 11:02 Cloudy 46 8 45 7 93 93 S 5 7 30.03 1017 10 16 0.00 0.00
11:20 am 11:20 Cloudy with Light Rain 48 9 46 8 94 94 S 6 9 30.03 1017 10 16 0.00 0.00
11:42 am 11:42 Cloudy with Light Rain 48 8.9 46 7.8 93 93 S 5 7 30.03 1017 10 16 0.01 0.25
11:53 am 11:53 Cloudy 48 8.9 46 7.8 93 93 S 5 7 30.01 1016 10 16 0.01 0.25
12:33 pm 12:33 Cloudy with Light Rain 48 8.9 46 7.8 93 93 SSW 3 6 30.03 1017 9 14 0.00 0.03
12:53 pm 12:53 Cloudy with Light Rain 48 8.9 46 7.8 93 93 SW 3 6 29.99 1016 6 10 0.01 0.25
1:14 pm 13:14 Cloudy with Light Rain 48 9 46 8 94 94 WSW 3 6 30.00 1016 7 11 0.00 0.00
1:42 pm 13:42 Cloudy with Light Rain 48 9 46 8 94 94 WSW 3 6 30.00 1016 7 11 0.00 0.00
1:53 pm 13:53 Cloudy with Light Rain 48 8.9 46 7.8 93 93 Calm 29.97 1015 8 13 0.02 0.51
2:32 pm 14:32 Cloudy with Light Rain 48 9 46 8 94 94 W 3 6 29.97 1015 10 16 0.00 0.00
2:37 pm 14:37 Cloudy with Light Rain 49 9.4 46 7.8 90 90 W 3 6 29.97 1015 10 16 0.01 0.25
2:53 pm 14:53 Mostly Cloudy 49 9.4 46 7.8 90 90 W 3 6 29.95 1014 10 16 0.01 0.25
3:01 pm 15:01 Mostly Cloudy 49 9.4 46 7.8 90 90 SSW 3 6 29.97 1015 10 16 0.00 0.00
3:22 pm 15:22 Cloudy 50 10 46 7.8 86 86 SW 3 6 29.94 1014 10 16 0.00 0.00
3:48 pm 15:48 Cloudy 50 10 45 7 82 82 Calm 29.91 1013 10 16 0.00 0.00
3:53 pm 15:53 Cloudy 50 10 46 7.8 86 86 Calm 29.93 1014 10 16 0.00 0.00
4:53 pm 16:53 Mostly Sunny 51 10.6 46 7.8 83 83 Calm 29.93 1014 10 16 0.00 0.00
5:53 pm 17:53 Cloudy 49 9.4 46 7.8 90 90 SSE 5 7 29.92 1013 10 16 0.00 0.00
6:53 pm 18:53 Cloudy 48 8.9 46 7.8 93 93 S 6 9 29.93 1014 10 16 0.00 0.00
7:21 pm 19:21 Cloudy 48 8.9 46 7.8 93 93 S 6 9 29.94 1014 10 16 0.00 0.00
7:38 pm 19:38 Cloudy 48 8.9 46 7.8 93 93 SSE 7 11 29.97 1015 10 16 0.00 0.00
7:46 pm 19:46 Cloudy 48 9 46 8 94 94 S 8 13 29.97 1015 10 16 0.00 0.00
7:53 pm 19:53 Cloudy 48 8.9 46 7.8 93 93 S 7 11 29.94 1014 10 16 0.00 0.00
8:00 pm 20:00 Cloudy 48 9 46 8 94 94 S 7 11 29.97 1015 10 16 0.00 0.00
8:25 pm 20:25 Cloudy 47 8.3 46 7.8 97 97 S 6 9 29.97 1015 10 16 0.00 0.00
8:53 pm 20:53 Mostly Cloudy 47 8.3 45 7.2 93 93 S 6 9 29.94 1014 10 16 0.00 0.00
9:08 pm 21:08 Partly Cloudy 46 8 45 7 93 93 S 5 7 29.97 1015 10 16 0.00 0.00
9:53 pm 21:53 Partly Cloudy 46 7.8 45 7.2 96 96 SSW 3 6 29.95 1014 10 16 0.00 0.00
10:00 pm 22:00 Mostly Cloudy 45 7 45 7 100 100 S 3 6 29.97 1015 10 16 0.00 0.00
10:11 pm 22:11 Partly Cloudy 45 7.2 44 6.7 97 97 S 5 7 29.97 1015 10 16 0.00 0.00
10:53 pm 22:53 Clear 44 6.7 44 6.7 100 100 S 5 7 29.95 1014 10 16 0.00 0.00
11:30 pm 23:30 Partly Cloudy with Mist and Fog 43 6 43 6 100 100 SSW 5 7 29.97 1015 3 4 0.00 0.00
11:35 pm 23:35 Mostly Cloudy with Mist and Fog 43 6.1 43 6.1 100 100 S 3 6 29.97 1015 1 2 0.00 0.00
11:50 pm 23:50 Cloudy with Mist and Fog 45 7 45 7 100 100 S 3 6 29.97 1015 2 3 0.00 0.00
11:53 pm 23:53 Cloudy with Mist and Fog 44 6.7 44 6.7 100 100 S 3 6 29.94 1014 2 3 0.00 0.00

Powered by AerisWeather